User: anonymous
Location: Unspecified
(0.0000°N, 0.0000°E)
Time: 05:59:12
(UTC+00:00)
Language:

HST - Orbit

View from above orbital plane
View from above orbital plane
View from above satellite
View from above satellite

Ground track
Ground track

The orbit data is extracted from the following two-line orbital elements,

1 20580U 90037B   14273.51959009  .00004327  00000-0  27928-3 0  1257
2 20580 028.4707 064.5319 0003045 339.5886 085.6899 15.05820596140604
Epoch (UTC): 30 September 2014 12:28:12
Eccentricity: 0.0003045
inclination: 28.4707°
perigee height: 547 km
apogee height: 551 km
right ascension of ascending node: 64.5319°
argument of perigee: 339.5886°
revolutions per day: 15.05820596
mean anomaly at epoch: 85.6899°
orbit number at epoch: 14060

The dashed part of the orbit path shows where the satellite is in the earth's shadow,  

DLR